NEE-02 KRYSAOR

Last updated on Thu Oct 23 2025 00:03:57 GMT+0000 (Coordinated Universal Time)

1 39441U 13066AB 25295.30970492 .00003851 00000+0 43749-3 0 9990 2 39441 97.8654 231.7761 0069265 128.3228 232.4241 14.85125215640870
UTC large
Height (km)
Speed (km/s)
/
Latitude / Longitude
Inclination (degrees)
Orbital Period (minutes)
Azimuth
Elevation
Range (km)
Doppler Factor

Next 0 passes for location: London (51.5072 / 0.1276)

Sorry there are no passes over London.